Regional Weather Roundup
Issued by NWS Green Bay, WI

Home | Current Version | Previous Version | Text Only | Print | Product List | Glossary On
Versions: 1 2 3 4 5 6 7 8 9 10 11 12 13 14 15 16 17 18 19 20 21 22 23 24 25 26 27 28 29 30 31 32 33 34 35 36 37 38 39 40 41 42 43 44 45 46 47 48 49 50
000
ASUS43 KGRB 240711
RWRGRB

NORTH-CENTRAL AND NORTHEAST WISCONSIN REGIONAL WEATHER ROUNDUP
NATIONAL WEATHER SERVICE GREEN BAY WI
200 AM CDT MON JUL 24 2017

WIZ005-009-010>012-018-019-240800-
NORTH CENTRAL WISCONSIN

CITY           SKY/WX    TMP DP  RH WIND       PRES   REMARKS
IRONWOOD       CLOUDY    55  55 100 CALM      30.06F
MANITOWISH WTR CLOUDY    54  54 100 N3        30.06R FOG
ARBOR VITAE    PTCLDY    52  51  97 N5        30.04F FOG
EAGLE RIVER    FOG       50  50 100 CALM      30.05R VSB 1/2
LAND O LAKES   FOG       47  47 100 CALM      30.07R VSB 1/2
RHINELANDER    CLEAR     52  52 100 N3        30.04S
PHILLIPS       FOG       51  51 100 CALM      30.04S VSB 1/2
ANTIGO         PTCLDY    53  53  99 NE6       30.03R
TOMAHAWK         N/A     50  49  96 CALM      30.04S FOG
MERRILL        NOT AVBL
$$

WIZ013-073-240800-
NORTHEAST WISCONSIN

CITY           SKY/WX    TMP DP  RH WIND       PRES   REMARKS
IRON MOUNTAIN  MOCLDY    55  50  83 N7        30.02R
MARINETTE      CLOUDY    60  55  83 N8        30.00R
OCONTO         CLOUDY    60  55  83 N5        29.98S
$$

WIZ017-030-035>037-045-240800-
CENTRAL WISCONSIN

CITY           SKY/WX    TMP DP  RH WIND       PRES   REMARKS
MEDFORD        CLEAR     53  52  95 NE3       30.02F
WAUSAU         CLEAR     57  54  89 N5        30.01R
MOSINEE        CLEAR     55  54  94 N7        30.03R
MARSHFIELD     CLEAR     58  53  84 NE7       30.00S
WISC RAPIDS    CLEAR     60  54  80 NE7       30.01S
STEVENS POINT  PTCLDY    53  52  98 NE5       30.01S
WAUPACA        CLOUDY    64  56  77 NE5       30.00R
SHAWANO        CLOUDY    63  56  78 NE13      30.00R
CLINTONVILLE   CLOUDY    61  54  77 NE9       29.99S
WAUTOMA        CLOUDY    62  55  77 NE6       29.99S
$$

WIZ038-039-048-051-240800-
FOX VALLEY

CITY           SKY/WX    TMP DP  RH WIND       PRES   REMARKS
NWS GREEN BAY  CLOUDY    62  58  86 N8        29.97R
APPLETON       CLOUDY    61  52  72 N12       29.97R
OSHKOSH        CLOUDY    63  56  78 N8        29.97R
FOND DU LAC    CLOUDY    65  55  70 NE14      29.97R
$$

WIZ022-050-052-240800-
EAST CENTRAL WISCONSIN

CITY           SKY/WX    TMP DP  RH WIND       PRES   REMARKS
EPHRAIM        CLOUDY    60  55  83 NE8       29.97R
WASHINGTON ISL CLOUDY    59  53  81 NE10      29.97S
STURGEON BAY     N/A     61  56  83 N9        29.98R
MANITOWOC      CLOUDY    63  58  83 N9        29.96R
SHEBOYGAN      CLOUDY    63  60  90 N9        29.95R
$$

LMZ563-521-522-541>543-240800-
LAKESHORE

STATION/POSITION TIME  TEMP    WIND        PRES    VSBY  WAVE
                       AIR SEA DIR/SP/G                  HT/PER
                 (UTC) (F)     (DEG/KT/KT) (MB)    (MI)  (FT/S)
SHEBOYGAN LKSHOR 0700   63     360/ 19/ 22 1013.7R
KEWAUNEE LKSHORE 0648   62     360/  7/ 11 1013.8R
NORTHPORT PIER   0640   62      30/ 12/ 17 1014.9R
N MID LAKE BUOY  0650   62 66   40/ 16/ 19 1014.9R         4/ 6
S GREEN BAY BUOY 0700   64 72  360/ 17/ 21 1014.7
SISTER BAY LKSHO 0702   61      40/  6/  9   N/A
CHAMBERS ISLAND  0640   63      20/ 18/ 22 1014.6R
MENOMINEE LKSHOR 0648   62     350/ 13/ 17 1015.0R
$$




USA.gov is the U.S. government's official web portal to all federal, state and local government web resources and services.